Regional Weather Roundup
Issued by NWS Sterling, VA

Home | Current Version | Previous Version | Text Only | Print | Product List | Glossary Off
Versions: 1 2 3 4 5 6 7 8 9 10 11 12 13 14 15 16 17 18 19 20 21 22 23 24 25 26 27 28 29 30 31 32 33 34 35 36 37 38 39 40 41 42 43 44 45 46 47 48 49 50

154
ASUS41 KLWX 240410
RWRLWX

REGIONAL WEATHER ROUNDUP
NATIONAL WEATHER SERVICE BALTIMORE MD/WASHINGTON DC
1200 AM EDT FRI MAR 24 2017

Note: "FAIR" indicates few or no clouds below 12,000 feet
with no significant weather and/or obstructions to visibility.
 TC=TEMPERATURE CELSIUS

 * =Non NWS site. Station does not report precipitation (e.g. rain,
    snow, etc.), thunder, or fog.

DCZ001-MDZ009-015-VAZ040>042-051-053>054-240500-
WASHINGTON METRO

CITY           SKY/WX    TMP DP  RH WIND       PRES   REMARKS
WASHINGTON NAT CLEAR     38  21  50 S13       30.55F
DULLES         CLEAR     36  21  54 SE7       30.51F
ANDREWS AFB    CLEAR     33  17  53 S9        30.53F WCI  25
FT BELVOIR     CLEAR     36  22  55 SE7       30.54S
QUANTICO       CLEAR     39  25  57 S10       30.56S
COLLEGE PARK*  CLEAR     36  18  48 CALM      30.54F
LEESBURG*      CLEAR     39  23  52 S7        30.51F
MANASSAS*      CLEAR     35  22  58 S6        30.53S
GAITHERSBURG*  CLEAR     34  16  47 SE9       30.55F WCI  26

$$

MDZ006>007-011-014-240500-
BALTIMORE METRO

CITY           SKY/WX    TMP DP  RH WIND       PRES   REMARKS
BWI AIRPORT    PTCLDY    36  18  48 S5        30.54F
MD SCIENCE CTR   N/A     39  22  50 MISG      30.54F
MARTIN STATE   CLEAR     39  27  60 SE9       30.56F
ANNAPOLIS      CLEAR     39  27  62 S6        30.55F
FORT MEADE*    CLEAR     30  23  74 CALM      30.56F

$$

MDZ012-015-019>023-240500-
MARYLAND EASTERN SHORE

CITY           SKY/WX    TMP DP  RH WIND       PRES   REMARKS
OCEAN CITY     CLEAR     37  27  67 SW6       30.61S
SALISBURY      CLEAR     29  23  78 S5        30.59F
BAY BRIDGE AP* CLEAR     37  23  56 S8        30.56S
CAMBRIDGE*     PTCLDY    30  23  74 SE6       30.58S
EASTON*        CLEAR     33  19  55 S5        30.60F

$$

MDZ017>025-240500-
SOUTHERN MARYLAND

CITY           SKY/WX    TMP DP  RH WIND       PRES   REMARKS
PATUXENT RIVER CLEAR     36  19  50 S8        30.57F
ST INIGOES     CLEAR     35  22  58 SE6       30.57F
LEONARDTOWN*   CLEAR     32  19  59 CALM      30.58F

$$

MDZ003>005-240500-
NORTH CENTRAL MARYLAND

CITY           SKY/WX    TMP DP  RH WIND       PRES   REMARKS
FREDERICK*     CLEAR     32  23  69 CALM      30.53F
HAGERSTOWN APT CLEAR     40  11  30 SE10      30.44F
WESTMINSTER*   CLEAR     36  21  55 SE9       30.48F WCI  29

$$

MDZ501>502-240500-
WESTERN MARYLAND

CITY           SKY/WX    TMP DP  RH WIND       PRES   REMARKS
OAKLAND*       CLEAR     32  14  47 SE12      30.30F WCI  23
CUMBERLAND*    CLEAR     37  16  41 NW3       30.44S

$$

VAZ025>031-240500-
SHENANDOAH VALLEY

CITY           SKY/WX    TMP DP  RH WIND       PRES   REMARKS
WINCHESTER*    CLEAR     37  16  41 S6        30.44F
FRONT ROYAL*     N/A    N/A N/A N/A MISG        N/A
LURAY*         CLEAR     36  23  60 S5        30.44F
NEW MARKET*    CLEAR     30  22  73 CALM      30.43F
STAUNTON*      CLEAR     32  19  58 SW3       30.46F
WAYNESBORO*    CLEAR     36  19  51 S5        30.44F

$$

WVZ021-048>050-054>055-240500-
EASTERN WEST VIRGINIA PANHANDLE

CITY           SKY/WX    TMP DP  RH WIND       PRES   REMARKS
MARTINSBURG    CLEAR     35  13  40 SE5       30.44F
PETERSBURG*    CLEAR     44  20  39 S6        30.39F

$$

VAZ036>039-050-240500-
CENTRAL FOOTHILLS

CITY           SKY/WX    TMP DP  RH WIND       PRES   REMARKS
CHARLOTTESVILL CLEAR     40  18  41 S7        30.48F
CULPEPER*      CLEAR     31  21  66 CALM      30.52S
ORANGE*        CLEAR     30  21  69 CALM      30.51F
GORDONSVILLE*  CLEAR     31  24  73 CALM      30.50F
WARRENTON*     CLEAR     37  16  41 SE8       30.50F

$$

VAZ055>057-240500-
NORTH AND CENTRAL PIEDMONT

CITY           SKY/WX    TMP DP  RH WIND       PRES   REMARKS
FREDERICKSBRG* CLEAR     36  23  59 SE7       30.54S
STAFFORD*      CLEAR     35  20  56 CALM      30.58S

$$

NCZ024-NYZ072-PAZ021-071-VAZ022-071-240500-
OTHER REGIONAL OBSERVATIONS

CITY           SKY/WX    TMP DP  RH WIND       PRES   REMARKS
NEW YORK CITY  CLEAR     38  20  48 S3        30.54F
PHILADELPHIA   CLEAR     36  20  52 S7        30.56F
PITTSBURGH     PTCLDY    42   9  25 SE7       30.27F
ROANOKE        CLEAR     43  18  36 SE3       30.48F
RICHMOND       CLEAR     36  23  59 SE7       30.57R
RALEIGH        PTCLDY    44  21  40 SE8       30.53F

$$

ANZ530>537-240500-
MARINE OBSERVATIONS

STATION/POSITION TIME  TEMP    WIND        PRES
                       AIR SEA DIR/SP/G
                 (UTC) (F)     (DEG/KT/KT) (MB)
THOMAS PT LIGHT  0400   41 43  170/ 15/ 17   N/A
BALT KEY BRIDGE  0348   40     170/  8/  9 1034.4F
COVE POINT       0348   40     200/ 12/ 16 1035.6F
LEWISETTA        0348   37 47  190/  9/ 11 1035.2S
SOLOMONS ISLAND  0348   39 45  170/  7/  9   N/A
PINEY POINT      0348          180/ 13/ 15   N/A

$$





USA.gov is the U.S. government's official web portal to all federal, state and local government web resources and services.